[[{"header":{"parameterUnit":"m.s-1","parameterCategory":1,"la1":30.2991,"la2":30.254,"lo1":-89.0895,"lo2":-89.0444,"dy":0.0017,"dx":0.0017,"nx":28,"ny":28,"refTime":"2024-12-09T09:00:00:Z","depth":0,"parameterNumber":2,"parameterNumberName":"U-component_of_WINDS"},"data":[0,0,0,0,0,0,0,0,0,0,0,0,0,0,0,0,0,0,0,0,0,0,0,0,0,0,0,0,0,0,0,0,0,0,0,0,0,0,0,0,0,0,0,0,0,0,0,0,0,0,0,0,0,0,0,0,0,0,0.2728,0.2728,0,0.2713,0.2713,0.2713,0.2653,0.2652,0.2651,0.2649,0.2639,0.264,0.2641,0,0,0,0,0,0,0,0,0,0,0,0,0,0.2709,0.271,0.2728,0.2728,0.2728,0.2713,0.2713,0.2713,0.2654,0.2652,0.265,0.2649,0.2639,0.264,0.2642,0,0,0,0,0,0,0,0,0,0,0,0,0,0.2708,0.271,0.2728,0.2696,0.2693,0.2713,0.2713,0.2712,0.2654,0.2652,0.265,0.2648,0.2639,0.264,0.2642,0.2692,0,0,0.2646,0.2647,0,0,0,0,0,0,0,0,0.2708,0.2709,0.2701,0.2698,0.2695,0.2683,0.2702,0.2706,0.2654,0.2669,0.2649,0.2647,0.2656,0.2656,0.2658,0.2692,0.2692,0.2646,0.2647,0.2648,0.2649,0,0,0,0,0,0,0,0.2709,0.2709,0.2722,0.2701,0.2697,0.2684,0.2682,0.2703,0.2675,0.2668,0.2663,0.2662,0.2654,0.2656,0.2657,0.2691,0.2646,0.2648,0.2649,0.2649,0.2766,0.2768,0,0,0,0,0,0,0.2713,0.271,0.2723,0.2722,0.2697,0.2686,0.2683,0.2689,0.2674,0.267,0.2664,0.2659,0.2655,0.2655,0.2657,0.2715,0.2648,0.2649,0.265,0.2764,0.2766,0.2769,0,0,0,0,0,0,0.2712,0.2714,0.2723,0.2714,0.2715,0.2688,0.2695,0.269,0.2692,0.2671,0.2666,0.2671,0.2653,0.2654,0.2683,0.2714,0.265,0.2652,0.2761,0.2765,0.2768,0.2834,0,0,0,0,0,0,0.2712,0.2715,0.2733,0.2715,0.2715,0.275,0.2697,0.2691,0.2694,0.2688,0.2677,0.2673,0.2652,0.2681,0.2685,0.2715,0.2653,0.2758,0.2763,0.2767,0.2829,0.2839,0.2848,0,0,0,0,0,0.2712,0.2754,0.2734,0.2736,0.2738,0.2752,0.2752,0.2725,0.2697,0.2716,0.2702,0.2673,0.2709,0.2685,0.2688,0.272,0.2757,0.2762,0.2766,0.2825,0.2837,0.2847,0,0,0,0,0,0,0.2778,0.2751,0.2729,0.2766,0.2761,0.2742,0.2765,0.2739,0.2743,0.2738,0.2705,0.2703,0.2737,0.2731,0.2704,0.2768,0.2728,0.2734,0.2771,0.2783,0.2792,0.2794,0.2654,0,0,0,0,0,0.2796,0.2809,0.2785,0.282,0.2818,0.2792,0.2797,0.2776,0.2771,0.2769,0.2757,0.2754,0.2765,0.2773,0.2781,0.2826,0.2824,0.2849,0.2858,0.2866,0.2873,0.2896,0.2908,0.2785,0.2785,0.2785,0,0,0.2836,0.2822,0.2833,0.2833,0.2827,0.2841,0.2791,0.2809,0.282,0.2772,0.2799,0.279,0.2784,0.2822,0.2837,0.2817,0.2905,0.2872,0.2879,0.2881,0.2903,0.2914,0.2925,0.2788,0.2788,0.2787,0,0,0.2916,0.2906,0.2934,0.2928,0.2919,0.29,0.2907,0.289,0.2882,0.2907,0.2872,0.2885,0.2903,0.2901,0.2902,0.2978,0.2952,0.2981,0.3032,0.3055,0.3065,0.3073,0.3102,0.3113,0.2987,0.2987,0.2987,0,0.2967,0.2987,0.2953,0.2973,0.2974,0.2928,0.2957,0.2954,0.2948,0.2951,0.2927,0.2949,0.2942,0.2978,0.2996,0.2998,0.3006,0.2984,0.3066,0.3074,0.3081,0.3109,0.3119,0.2991,0.2991,0.299,0.299,0,0.3051,0.3064,0.3088,0.3082,0.3086,0.311,0.3081,0.3089,0.3067,0.3051,0.3078,0.3067,0.3072,0.3078,0.3058,0.3112,0.3099,0.3071,0.3032,0.3098,0.3123,0.3132,0.2996,0.2995,0.2994,0.2993,0,0,0.3176,0.3148,0.3158,0.3154,0.3138,0.3149,0.3171,0.3174,0.3182,0.3179,0.3198,0.3213,0.3186,0.3187,0.3166,0.3186,0.3248,0.3155,0.3154,0.3174,0.3307,0.3331,0.3343,0.3229,0.323,0.3232,0.3308,0,0.3254,0.3289,0.3258,0.33,0.3313,0.3268,0.3287,0.328,0.3265,0.3275,0.3258,0.3271,0.3233,0.3234,0.3251,0.3237,0.3274,0.323,0.3248,0.3249,0.3254,0.3356,0.3381,0.3454,0.3318,0.3319,0.3321,0,0.335,0.3349,0.3392,0.3372,0.3376,0.3394,0.3394,0.3403,0.3394,0.3382,0.3382,0.3354,0.3375,0.3333,0.3362,0.3333,0.3337,0.3331,0.3333,0.3337,0.3292,0.3365,0.3477,0.3489,0.3335,0.3334,0.3333,0,0.344,0.3449,0.3475,0.3473,0.3451,0.3464,0.3456,0.3444,0.3448,0.3448,0.345,0.3453,0.3455,0.3458,0.3432,0.3404,0.3465,0.3421,0.3458,0.3458,0.3476,0.3476,0.3593,0.3474,0.3474,0.3474,0.3473,0,0.3532,0.3561,0.3515,0.3533,0.3563,0.3526,0.3558,0.3544,0.3534,0.3548,0.3509,0.3523,0.3486,0.3497,0.3476,0.3505,0.3505,0.3497,0.3492,0.3503,0.3504,0.3508,0.3504,0.3477,0.3476,0.3475,0.3475,0,0.3639,0.361,0.3636,0.3611,0.3606,0.3629,0.3609,0.3624,0.3604,0.3623,0.3625,0.3596,0.3606,0.3579,0.3586,0.3572,0.3613,0.3598,0.3616,0.3613,0.3652,0.3649,0.3778,0.3794,0.3662,0.3664,0.3665,0,0.3702,0.3722,0.3698,0.3704,0.3697,0.3707,0.3709,0.3673,0.3678,0.3668,0.3684,0.369,0.3694,0.3713,0.3693,0.3698,0.3685,0.3729,0.3686,0.3695,0.3688,0.3689,0.3691,0.374,0.3742,0.3743,0.3744,0,0.3816,0.3799,0.3804,0.3803,0.3807,0.3805,0.38,0.3807,0.3768,0.3776,0.3784,0.3787,0.3792,0.38,0.3799,0.3792,0.3763,0.3757,0.3766,0.3779,0.3789,0.3786,0.3644,0.3755,0.3754,0.3753,0.3753,0.3752,0.3904,0.392,0.3906,0.3912,0.3904,0.39,0.3912,0.3893,0.39,0.3901,0.3878,0.3892,0.3881,0.3877,0.3872,0.3883,0.3863,0.3876,0.3879,0.3884,0.3891,0.3784,0.3882,0.3882,0.3882,0.3881,0.3881,0,0.4018,0.4006,0.4011,0.4005,0.401,0.3978,0.397,0.3977,0.3989,0.398,0.3984,0.3994,0.4,0.3979,0.3983,0.3996,0.3982,0.3998,0.3999,0.3998,0.3908,0.3901,0.4009,0.4009,0.4009,0.4009,0.4009,0.4009,0.4079,0.4104,0.4086,0.4107,0.4095,0.4106,0.4105,0.4101,0.4094,0.4107,0.4111,0.4096,0.4083,0.4085,0.4089,0.4083,0.4087,0.4109,0.4098,0.4016,0.4004,0.3992,0.3985,0.4109,0.4109,0.4187,0.4187,0.4188]},{"header":{"parameterUnit":"m.s-1","parameterCategory":1,"la1":30.2991,"la2":30.254,"lo1":-89.0895,"lo2":-89.0444,"dy":0.0017,"dx":0.0017,"nx":28,"ny":28,"refTime":"2024-12-09T09:00:00:Z","depth":0,"parameterNumber":3,"parameterNumberName":"V-component_of_WINDS"},"data":[0,0,0,0,0,0,0,0,0,0,0,0,0,0,0,0,0,0,0,0,0,0,0,0,0,0,0,0,0,0,0,0,0,0,0,0,0,0,0,0,0,0,0,0,0,0,0,0,0,0,0,0,0,0,0,0,0,0,3.3258,3.3258,0,3.3318,3.3319,3.3319,3.3319,3.3318,3.3317,3.3316,3.338,3.3382,3.3384,0,0,0,0,0,0,0,0,0,0,0,0,0,3.3143,3.3145,3.3258,3.3258,3.3259,3.3318,3.3319,3.3319,3.3319,3.3318,3.3317,3.3316,3.3379,3.3382,3.3385,0,0,0,0,0,0,0,0,0,0,0,0,0,3.3197,3.3146,3.3258,3.3266,3.3267,3.3318,3.3319,3.332,3.3319,3.3318,3.3317,3.3315,3.3378,3.3381,3.3385,3.3432,0,0,3.3396,3.3398,0,0,0,0,0,0,0,0,3.3194,3.3201,3.3264,3.3265,3.3267,3.3309,3.3301,3.3357,3.3319,3.3299,3.3316,3.3315,3.3357,3.3363,3.3377,3.3435,3.3437,3.3396,3.3399,3.34,3.3401,0,0,0,0,0,0,0,3.319,3.3199,3.3282,3.3265,3.3267,3.3267,3.3273,3.3312,3.3334,3.3301,3.3301,3.3308,3.3358,3.3373,3.3378,3.3438,3.3396,3.34,3.3402,3.3403,3.3536,3.3537,0,0,0,0,0,0,3.3185,3.3196,3.328,3.3283,3.3227,3.327,3.3277,3.3297,3.3334,3.3338,3.3309,3.3308,3.3367,3.3374,3.338,3.3436,3.34,3.3404,3.3406,3.3535,3.3536,3.3538,0,0,0,0,0,0,3.3182,3.3192,3.3277,3.324,3.325,3.3273,3.3296,3.3299,3.3314,3.334,3.3344,3.332,3.3367,3.3375,3.3418,3.3439,3.3405,3.3409,3.3533,3.3535,3.3537,3.355,0,0,0,0,0,0,3.3179,3.3191,3.3209,3.324,3.3252,3.3314,3.3297,3.3301,3.332,3.3319,3.3352,3.3356,3.3366,3.3413,3.3422,3.3443,3.3411,3.3531,3.3534,3.3536,3.3548,3.3552,3.3555,0,0,0,0,0,3.3175,3.3211,3.321,3.322,3.3275,3.3315,3.3323,3.3333,3.3322,3.334,3.3356,3.3355,3.3435,3.3417,3.3428,3.345,3.353,3.3533,3.3536,3.3546,3.3551,3.3555,0,0,0,0,0,0,3.3183,3.3215,3.3215,3.3262,3.3286,3.3315,3.3338,3.3339,3.3367,3.3365,3.3378,3.3385,3.3428,3.3443,3.3423,3.3496,3.3481,3.3486,3.3485,3.349,3.3494,3.3489,3.3414,0,0,0,0,0,3.319,3.322,3.3246,3.3285,3.3297,3.3316,3.3334,3.334,3.3365,3.3376,3.3396,3.3421,3.3452,3.3472,3.3502,3.355,3.3556,3.357,3.3574,3.3577,3.3581,3.3607,3.3613,3.3548,3.3548,3.3548,0,0,3.3205,3.3227,3.3245,3.3287,3.3307,3.3337,3.3324,3.3358,3.338,3.3381,3.3423,3.3438,3.3467,3.3513,3.3534,3.3527,3.3601,3.3581,3.3583,3.3586,3.3611,3.3617,3.3622,3.355,3.3549,3.3549,0,0,3.3248,3.3268,3.3302,3.3321,3.335,3.3362,3.337,3.3399,3.3409,3.3451,3.3452,3.3479,3.3532,3.3552,3.357,3.3619,3.3619,3.3629,3.365,3.3674,3.3679,3.3684,3.3701,3.3707,3.3633,3.3633,3.3633,0,3.3264,3.331,3.3319,3.3352,3.3371,3.3372,3.3406,3.3425,3.3462,3.3475,3.3467,3.3532,3.3552,3.3602,3.3613,3.3628,3.3637,3.3625,3.3678,3.3683,3.3687,3.3703,3.371,3.3634,3.3634,3.3634,3.3634,0,3.3327,3.3358,3.3382,3.3417,3.3439,3.3472,3.3487,3.3508,3.3511,3.3524,3.3566,3.359,3.3624,3.3636,3.3641,3.3686,3.3681,3.3675,3.366,3.3694,3.371,3.3716,3.3635,3.3635,3.3635,3.3634,0,0,3.3378,3.3417,3.3425,3.3441,3.3472,3.3497,3.353,3.3563,3.358,3.3605,3.3634,3.3677,3.3672,3.3691,3.3698,3.372,3.3756,3.3711,3.3712,3.3718,3.3807,3.3811,3.3818,3.3756,3.3757,3.3758,3.3805,0,3.3424,3.3482,3.3492,3.3543,3.3572,3.3573,3.3602,3.3624,3.3637,3.3663,3.3677,3.3708,3.3698,3.371,3.3732,3.3747,3.3775,3.3744,3.3782,3.3784,3.3775,3.3827,3.3831,3.3874,3.3811,3.3812,3.3813,0,3.3486,3.3512,3.3566,3.3593,3.3605,3.3631,3.3661,3.3686,3.3711,3.3719,3.374,3.3744,3.3778,3.3761,3.3808,3.3788,3.3804,3.3814,3.3816,3.3819,3.38,3.3832,3.3888,3.3894,3.3823,3.3822,3.3821,0,3.3516,3.3565,3.3604,3.3617,3.3649,3.3667,3.3682,3.3706,3.3724,3.375,3.3762,3.3793,3.3809,3.3832,3.3844,3.3831,3.389,3.3874,3.3897,3.3897,3.391,3.3909,3.3969,3.3921,3.392,3.392,3.392,0,3.3567,3.36,3.3618,3.3642,3.3678,3.3689,3.3725,3.3739,3.376,3.3786,3.3789,3.3814,3.3828,3.3854,3.3864,3.3901,3.3909,3.3915,3.3917,3.3915,3.3914,3.3926,3.3923,3.3922,3.3922,3.3921,3.3921,0,3.3608,3.3621,3.3663,3.3689,3.3697,3.3723,3.3746,3.3768,3.378,3.3813,3.3822,3.3841,3.3872,3.3886,3.3925,3.3931,3.3973,3.3974,3.3965,3.3965,3.3987,3.3985,3.4057,3.4066,3.4012,3.4012,3.4013,0,3.3639,3.3664,3.3693,3.3711,3.3725,3.3753,3.3772,3.3783,3.3802,3.3832,3.3851,3.3882,3.3908,3.3958,3.3975,3.4005,3.4005,3.4029,3.401,3.4006,3.4005,3.4003,3.4005,3.4032,3.4033,3.4033,3.4033,0,3.3693,3.3698,3.3724,3.3753,3.3775,3.3798,3.3821,3.3835,3.3849,3.3871,3.3902,3.3922,3.3961,3.3992,3.4022,3.4037,3.4037,3.4039,3.4046,3.4043,3.4037,3.404,3.3974,3.4037,3.4037,3.4037,3.4036,3.4036,3.373,3.3752,3.3775,3.3804,3.3822,3.3843,3.3865,3.388,3.3906,3.3938,3.3943,3.3977,3.4,3.4041,3.4057,3.4083,3.4077,3.4087,3.409,3.4092,3.4093,3.4033,3.4089,3.4089,3.4089,3.4088,3.4088,0,3.3783,3.3798,3.3824,3.3855,3.3878,3.3876,3.3901,3.392,3.3949,3.3971,3.3996,3.4032,3.4061,3.408,3.411,3.4127,3.4128,3.4135,3.4133,3.4137,3.4097,3.4088,3.4133,3.4133,3.4133,3.4133,3.4133,3.4133,3.3813,3.385,3.3858,3.3904,3.3918,3.3951,3.3965,3.3984,3.4001,3.4041,3.4065,3.4077,3.4098,3.4129,3.4156,3.416,3.4171,3.4178,3.4182,3.4144,3.414,3.4135,3.4127,3.418,3.418,3.422,3.422,3.4221]}]]